GFSNW_925_spd_108.txt.gz
Wind_Speed
2 2 4 4 6 8 6 3 0 8 8 1 1 4 5 5 8 8 3 8 12 12 17 10 10 11 9 11 5 7 8 3 7 8 4 6 14 16 15 8 9 10 10 5
3 3 4 4 4 4 4 2 2 3 4 1 3 5 3 2 8 10 8 8 11 15 10 6 10 13 9 13 11 9 7 1 6 6 6 5 8 10 14 13 8 10 8 3
5 4 5 4 3 2 2 1 1 2 1 1 3 6 5 7 5 5 8 6 10 15 9 9 9 13 10 15 12 13 5 2 3 2 4 2 6 9 10 12 8 9 8 4
5 6 6 4 3 6 2 2 1 2 0 1 5 5 3 5 7 4 6 2 12 12 6 10 9 13 16 7 8 7 5 4 5 6 4 4 5 5 9 12 11 6 4 5
7 7 6 4 6 10 2 2 1 3 2 3 4 2 1 4 7 5 6 7 14 13 9 9 16 16 12 6 4 8 5 2 4 5 5 6 9 11 11 10 7 7 7 7
7 7 6 3 11 14 2 2 2 3 1 2 3 2 2 3 7 5 5 8 15 13 10 15 20 18 16 15 13 6 4 4 3 1 1 3 8 13 13 10 4 4 7 6
9 9 7 4 12 18 6 4 3 1 3 4 3 5 7 10 10 11 13 13 11 8 17 22 18 15 15 15 13 10 5 6 4 2 4 5 5 5 9 7 3 3 5 3
10 10 7 7 6 23 13 7 4 2 4 5 6 8 8 9 9 12 12 8 7 13 14 9 8 3 5 8 9 9 9 5 3 3 4 3 6 4 2 4 5 6 3 3
12 12 9 8 9 8 22 15 12 2 2 3 6 4 4 6 4 4 3 7 9 7 3 4 4 3 3 1 5 7 5 9 6 2 4 2 6 5 13 7 4 4 6 8
12 12 10 9 10 9 18 10 22 5 2 9 9 5 5 3 4 5 5 7 4 5 3 5 2 3 4 3 4 1 3 3 8 7 4 0 8 9 13 5 4 8 8 9
14 12 13 9 11 11 9 9 24 11 3 8 8 8 10 7 5 6 7 6 1 2 3 3 4 2 3 3 4 3 5 4 1 3 3 3 15 1 5 5 8 8 10 9
14 12 15 11 11 12 10 6 18 25 2 4 5 12 21 19 13 7 3 4 6 2 3 3 4 3 4 5 2 3 1 4 4 4 4 6 8 9 9 7 8 8 10 7
16 14 14 13 13 12 11 6 13 9 1 3 8 11 18 21 19 12 4 3 4 3 2 2 3 4 1 3 3 4 2 5 3 4 6 7 8 10 11 10 10 9 9 8
16 13 14 14 13 12 10 10 15 13 2 3 4 3 8 6 14 20 22 13 3 2 2 3 3 4 2 3 5 6 3 6 5 2 5 4 9 8 8 9 9 9 11 10
15 13 14 13 12 11 11 14 20 22 4 2 4 9 12 11 10 14 14 15 11 5 2 3 4 4 4 4 4 2 3 4 4 3 6 4 5 7 8 10 10 10 8 7
16 15 14 14 12 9 5 0 14 24 13 1 3 2 1 2 8 11 10 9 5 3 3 3 3 2 2 3 2 4 5 4 6 2 7 12 8 8 8 9 8 9 7 7
16 15 15 14 14 12 5 2 2 27 16 2 3 3 3 4 7 4 4 8 3 4 3 4 4 4 5 2 3 6 6 6 7 6 3 6 7 4 6 7 7 5 8 8
16 15 15 14 13 11 11 11 5 25 5 3 3 3 3 10 4 4 4 4 4 6 4 3 2 2 2 2 6 5 4 4 7 8 10 10 8 7 5 3 3 4 5 6
15 15 13 13 8 4 7 13 23 18 3 3 3 3 1 3 3 2 3 3 4 4 4 4 2 3 3 3 5 5 6 4 4 3 6 7 7 5 4 4 5 4 5 5
11 8 5 3 7 20 23 6 2 2 2 3 4 3 3 5 3 4 3 3 3 4 5 3 4 2 6 6 6 5 5 7 7 3 2 4 4 4 5 6 5 5 5 4
5 4 3 8 31 6 1 4 4 4 4 4 4 8 5 4 3 3 3 2 3 3 4 4 4 3 4 6 6 6 6 7 8 7 6 5 4 4 4 5 7 6 7 7
9 6 7 11 3 3 5 6 5 6 6 6 5 4 6 3 2 2 3 3 5 4 6 3 3 4 7 6 6 6 7 7 8 8 7 8 9 8 7 7 7 8 9 8
7 4 4 3 2 6 7 10 4 5 5 6 5 5 4 2 3 2 3 5 3 6 3 1 3 7 5 5 5 6 8 8 9 10 11 11 11 12 10 9 8 9 10 10
4 5 5 5 5 5 3 5 6 3 4 7 7 3 2 2 4 0 4 2 2 4 4 2 4 6 5 5 5 5 7 8 9 9 10 11 11 11 10 10 8 9 10 10
1 3 5 4 2 2 3 3 5 2 1 4 4 3 2 1 1 0 2 3 2 2 2 3 5 6 5 5 6 7 7 7 8 8 9 9 10 10 11 9 9 10 10 10
2 3 3 4 6 4 3 4 4 2 1 2 2 3 3 2 0 2 0 2 1 3 3 5 6 6 5 6 7 8 8 8 9 9 9 9 8 9 9 9 9 9 9 9
3 3 4 3 5 5 3 2 2 3 1 2 2 3 2 3 2 3 2 2 4 6 5 4 6 7 7 7 8 8 8 8 9 9 8 8 8 7 7 9 8 8 8 8

GFSNW_925_spd_114.txt.gz
Wind_Speed
7 5 3 2 5 8 8 5 2 3 2 4 3 3 3 1 5 7 5 6 12 12 15 10 11 13 11 13 10 12 9 5 4 9 13 13 12 13 16 7 10 5 1 3
6 6 3 3 4 5 10 3 1 4 4 3 4 4 3 1 4 8 6 6 7 14 11 6 14 14 13 12 12 12 8 4 5 7 7 14 17 15 13 12 8 5 4 1
6 6 5 4 3 4 5 2 2 1 4 3 5 6 2 5 5 5 7 9 9 13 14 14 4 16 15 18 8 6 6 6 5 3 8 9 8 16 16 11 7 8 5 1
8 7 5 4 2 3 3 4 3 3 2 3 5 6 7 7 5 5 9 6 9 13 15 14 12 18 19 18 9 13 11 6 5 14 11 6 8 9 7 15 12 8 13 4
9 5 6 4 1 3 3 2 2 2 3 1 2 1 5 4 6 9 10 9 14 14 14 13 18 20 18 18 16 14 11 5 14 16 10 13 4 7 10 15 9 10 5 1
9 5 7 5 3 5 2 5 2 4 2 4 3 3 5 9 9 6 11 14 15 14 15 18 20 18 18 19 18 13 7 4 9 4 13 10 3 7 5 7 5 3 6 8
9 5 8 6 5 11 4 2 4 2 4 5 2 6 8 10 10 11 11 12 13 12 19 20 18 18 16 9 12 8 5 8 5 6 7 1 11 21 17 14 19 17 14 14
11 7 9 7 6 9 4 4 3 2 4 6 7 5 6 10 11 8 10 9 11 13 15 9 10 9 1 5 5 8 7 5 4 4 7 4 20 16 9 9 10 17 10 11
11 10 9 7 6 5 7 4 5 2 3 0 10 7 8 8 8 7 4 11 12 12 6 5 8 9 14 4 8 15 7 6 5 8 5 3 10 17 10 8 3 15 12 12
13 10 9 9 7 5 6 4 9 3 3 7 5 4 7 9 8 7 7 14 11 7 4 7 8 7 11 6 2 3 5 4 7 7 5 5 16 18 14 3 5 8 13 12
13 11 9 10 7 8 7 3 8 4 2 10 16 12 10 10 8 4 10 7 7 5 5 4 5 5 6 7 7 5 3 3 4 6 4 1 21 7 6 2 5 8 7 10
14 13 12 10 9 8 8 3 5 8 2 6 13 21 22 17 13 8 4 6 9 3 4 4 5 5 4 10 4 9 3 5 2 4 3 5 8 9 10 10 7 10 9 9
13 14 13 10 11 7 9 7 6 3 1 7 11 6 1 12 17 15 6 3 3 3 6 3 3 4 5 6 6 9 3 11 3 4 5 6 8 8 10 12 11 11 11 10
14 13 14 11 10 11 8 11 7 4 2 3 4 4 2 5 5 14 14 12 5 8 3 3 3 3 6 8 8 6 6 6 6 4 4 2 10 8 9 10 11 10 10 11
14 13 13 11 9 10 8 11 13 9 3 3 6 20 19 7 6 8 12 8 4 4 3 2 3 5 5 6 5 3 6 3 3 2 6 4 5 7 9 9 10 11 10 8
14 12 12 10 9 9 5 2 12 16 9 2 3 3 5 4 5 8 8 9 3 3 2 3 3 10 4 3 2 4 4 5 4 2 2 7 6 7 7 8 8 9 10 11
13 12 12 9 9 10 7 1 3 7 15 2 3 3 3 5 2 2 2 4 2 3 2 4 8 8 3 2 3 6 4 4 5 4 2 5 10 5 6 5 3 5 8 10
14 11 10 8 8 6 10 19 10 8 4 3 3 4 4 7 3 2 3 3 2 4 4 4 5 5 4 2 7 5 3 4 5 6 7 6 5 7 8 10 11 5 8 8
15 11 7 6 6 5 5 5 7 11 5 2 3 3 1 5 3 2 3 4 4 4 5 6 4 4 2 5 7 7 6 3 3 3 5 5 7 7 8 9 10 9 8 9
14 11 5 3 7 10 8 5 1 2 3 3 3 6 4 5 3 4 3 3 3 3 6 3 5 3 9 8 8 7 7 7 9 0 3 6 6 6 7 7 8 10 10 12
12 4 3 5 20 7 3 4 5 4 4 5 5 9 6 3 4 4 2 1 3 3 2 4 4 3 4 8 8 8 8 9 9 9 10 10 9 7 7 8 12 12 13 12
8 5 1 4 4 4 5 5 4 6 6 7 5 5 5 2 2 2 4 2 2 4 2 2 2 4 8 8 8 8 8 8 10 12 11 13 14 13 13 12 11 12 10 11
2 2 3 3 5 7 6 10 4 5 4 4 5 3 3 3 3 1 1 3 5 6 2 2 3 8 7 6 7 8 11 10 11 11 11 12 12 15 13 11 10 10 11 12
2 4 6 5 5 6 4 6 6 3 4 7 6 5 3 2 2 1 3 3 3 3 3 4 5 8 7 7 7 7 7 9 10 10 10 10 10 11 10 10 9 10 10 10
3 4 5 4 3 4 2 3 3 3 6 7 4 2 2 1 3 3 2 3 4 3 3 3 7 8 7 7 7 6 6 6 8 9 9 8 8 9 10 9 9 9 8 8
3 3 4 2 1 1 1 3 3 1 4 4 1 3 3 4 2 4 3 3 3 3 4 6 8 9 8 7 7 8 9 9 9 9 8 8 8 8 9 8 8 9 8 8
3 2 2 5 3 2 3 2 2 1 1 2 3 5 3 3 3 3 3 3 5 7 7 6 9 9 8 9 9 8 9 9 9 9 8 6 4 3 6 7 5 6 4 5

GFSNW_925_spd_117.txt.gz
Wind_Speed
7 6 5 3 4 5 4 3 2 9 8 2 2 1 1 2 5 8 4 4 4 7 12 5 6 6 8 11 10 9 6 3 6 6 17 8 13 6 5 3 4 2 6 3
7 6 5 3 2 5 3 2 3 7 5 1 2 2 4 3 2 4 2 4 4 9 7 6 8 8 11 14 14 11 6 4 5 10 9 11 3 11 11 12 2 1 2 4
7 6 5 2 2 3 2 2 2 0 1 3 2 4 2 4 6 4 5 5 5 6 7 10 10 11 12 15 17 14 4 3 3 1 6 6 10 16 15 6 2 3 3 8
8 7 5 2 2 2 1 3 3 3 1 2 4 4 5 9 4 5 7 5 9 7 5 10 6 18 21 14 7 7 6 4 8 13 13 9 13 10 12 9 8 2 5 13
10 7 6 2 2 1 2 2 1 4 4 5 4 1 3 7 8 7 6 6 9 8 8 9 13 15 15 9 3 9 7 3 9 6 11 9 6 8 9 8 12 11 11 10
10 6 5 3 1 2 2 4 5 2 4 3 2 4 1 4 3 4 7 5 5 8 6 10 14 16 19 18 15 12 4 4 5 4 16 6 6 15 9 11 18 4 4 9
11 5 6 6 3 5 4 4 4 3 4 3 1 4 3 3 5 4 7 5 3 5 8 13 13 15 17 16 16 9 5 4 2 4 8 3 6 17 15 17 19 19 15 10
12 6 7 8 4 4 1 7 4 1 2 4 5 8 4 5 7 6 4 7 6 7 7 4 6 5 6 4 9 4 1 1 2 2 4 3 13 18 14 13 10 16 15 7
12 8 8 8 5 2 6 2 4 2 2 2 10 7 6 4 5 6 4 9 11 5 2 3 3 2 3 4 8 6 3 2 2 3 3 4 6 20 18 10 6 12 12 13
13 10 9 8 4 4 5 0 2 2 1 2 5 5 2 4 4 3 3 9 7 6 3 1 1 3 8 4 6 5 4 3 4 3 2 5 13 17 14 4 4 8 9 8
14 10 9 9 6 5 5 3 3 4 1 5 5 5 4 4 2 1 5 5 5 4 5 3 3 2 3 4 4 8 4 3 2 3 4 3 17 8 7 6 7 8 9 7
15 12 10 9 8 7 5 3 4 2 1 4 14 23 26 17 12 1 4 2 3 2 3 3 3 3 3 5 4 3 3 2 2 4 2 3 6 6 7 10 9 11 9 8
15 12 11 9 9 6 7 1 6 4 1 5 2 5 5 5 16 20 2 2 2 4 2 1 2 2 3 3 3 4 3 7 3 3 6 7 9 7 9 10 11 10 11 14
13 12 12 9 8 8 5 4 6 4 1 2 5 13 4 4 7 17 16 8 3 2 1 0 2 1 2 2 4 3 3 5 4 3 5 5 9 7 7 9 11 11 10 10
11 11 13 10 7 7 6 3 7 7 2 2 5 19 12 11 10 7 17 9 2 2 2 1 2 2 3 3 2 2 3 2 2 1 1 4 3 4 6 7 8 10 11 9
12 12 12 10 6 6 3 1 8 14 7 0 3 6 4 10 8 10 4 9 2 2 2 3 3 3 2 1 1 4 5 5 3 2 2 6 6 4 4 4 4 8 9 12
14 11 12 8 6 9 4 1 1 3 13 2 3 3 2 10 4 4 3 5 1 2 2 2 3 2 2 1 1 7 6 5 4 3 1 5 7 3 5 5 3 9 11 14
14 13 10 7 4 5 7 13 6 7 5 1 3 4 1 5 2 1 1 1 1 2 3 2 2 2 3 1 8 9 7 7 6 6 6 5 6 7 8 11 11 10 9 12
15 11 9 4 3 4 3 4 6 4 3 1 3 2 3 1 2 2 1 1 2 3 3 3 2 2 3 4 9 9 8 6 4 6 7 6 6 7 8 9 10 10 10 10
16 10 4 2 5 7 11 4 2 1 2 3 3 2 2 4 2 2 2 2 2 2 4 2 3 3 5 8 10 9 9 10 10 6 8 6 7 5 7 10 11 12 10 11
8 4 4 6 11 5 2 3 3 3 3 4 4 6 3 2 3 3 2 2 2 2 3 3 2 2 3 7 9 8 11 14 13 14 14 14 12 9 9 10 13 12 12 11
11 7 2 6 4 3 5 4 3 5 5 3 4 4 6 1 3 3 3 2 1 4 1 2 2 3 7 6 8 8 12 15 14 15 13 14 14 14 14 12 12 12 10 10
5 2 1 2 3 6 6 7 3 3 3 3 2 1 3 2 2 3 1 3 4 2 0 2 2 7 6 7 9 10 14 15 14 13 13 13 14 16 15 14 13 12 14 14
2 3 4 4 5 5 4 4 5 4 4 6 4 2 3 2 2 2 3 4 2 3 2 2 3 7 8 9 8 9 7 10 11 11 12 12 13 14 14 14 12 12 14 13
1 3 4 4 1 2 1 2 1 2 4 6 3 2 3 1 3 3 2 2 3 1 2 2 5 7 8 8 8 7 5 8 10 10 9 10 11 12 12 11 10 10 11 12
2 4 3 3 3 2 1 2 2 3 2 2 2 3 3 2 3 3 5 2 2 3 3 5 7 8 7 7 7 11 14 14 12 11 10 10 10 10 9 9 8 8 9 10
3 2 1 2 4 3 2 2 2 3 2 2 2 4 4 2 2 3 2 1 3 6 6 5 8 8 7 11 13 13 13 13 13 12 8 7 6 6 6 5 3 3 5 9

GFSNW_925_spd_120.txt.gz
Wind_Speed
12 11 8 5 3 2 4 4 2 11 12 2 1 2 4 4 3 3 2 3 3 2 4 5 3 5 3 9 7 8 4 4 6 11 9 11 5 11 7 2 3 2 2 2
12 11 8 7 2 3 5 3 2 6 5 2 1 4 2 6 3 1 1 2 2 2 3 5 4 5 8 13 12 4 6 3 6 8 3 10 5 9 14 4 2 5 1 2
11 9 7 6 4 3 3 3 2 2 2 1 3 0 2 3 2 0 3 1 2 3 4 1 7 4 6 9 12 10 5 3 2 5 10 6 7 16 16 8 3 3 1 4
10 9 6 5 3 3 2 2 3 3 2 2 4 2 1 2 3 4 6 4 3 2 4 6 2 7 9 10 5 6 2 4 5 15 9 5 5 12 12 9 10 3 9 4
10 8 7 4 3 4 2 3 3 3 0 3 3 1 1 2 3 2 4 1 5 4 4 4 13 11 11 6 7 6 5 4 6 6 4 6 11 11 15 11 13 13 16 9
11 9 7 4 2 4 2 2 2 3 2 2 3 3 3 2 2 1 1 4 4 6 7 8 13 12 15 12 10 13 4 3 5 4 13 7 8 15 17 12 22 7 5 6
12 8 7 5 2 5 5 5 2 3 1 2 0 2 3 4 3 1 3 5 2 5 8 10 8 9 13 11 12 11 4 4 2 4 8 3 5 16 8 19 18 18 14 10
12 7 7 6 3 6 9 5 3 2 2 1 5 9 4 7 7 5 2 3 4 7 6 4 5 5 5 4 2 3 6 2 3 2 3 3 8 14 9 6 10 13 11 7
13 8 7 7 4 5 6 8 5 3 4 1 4 3 4 3 3 6 3 5 7 6 3 3 3 3 4 4 7 6 7 1 2 3 2 5 4 19 15 6 7 11 11 10
13 9 8 8 6 6 7 5 5 4 3 1 3 3 1 1 2 2 3 6 7 5 3 2 2 3 4 4 5 5 5 4 3 3 2 2 12 18 13 3 4 7 7 7
13 10 9 8 7 8 7 7 6 4 2 3 2 2 1 2 2 2 4 4 4 4 5 3 2 2 3 2 2 4 4 3 4 4 4 4 19 7 6 3 9 10 7 5
14 12 10 9 8 9 7 5 5 5 4 3 5 17 21 13 9 4 2 3 2 1 3 2 2 2 3 3 2 2 3 2 2 4 2 4 5 5 7 7 6 9 10 11
15 12 11 10 8 8 6 8 7 4 2 3 3 3 7 6 16 19 4 2 1 2 3 2 2 1 2 1 2 3 3 4 3 4 4 5 6 5 8 8 9 8 7 10
15 13 12 10 9 7 8 5 6 5 3 1 5 9 5 3 8 14 21 4 4 3 2 1 1 1 0 2 3 2 2 4 1 3 5 5 5 5 6 5 7 9 9 10
13 14 13 10 9 8 7 5 4 3 3 1 4 16 6 7 12 15 15 8 3 2 2 1 2 2 2 2 1 2 3 2 1 2 1 2 2 3 4 4 6 7 9 10
12 13 13 11 9 7 5 3 4 9 4 1 3 5 5 5 11 8 7 8 3 2 2 2 3 3 2 0 0 2 4 3 4 2 3 4 4 3 4 1 4 8 9 10
14 14 13 10 7 9 4 2 2 9 8 1 3 4 3 5 5 3 3 3 2 2 1 1 2 2 2 1 2 6 6 5 4 4 3 3 5 3 8 9 8 12 13 13
15 14 11 8 5 2 5 4 1 13 4 2 1 3 2 1 2 1 1 1 2 1 2 2 2 2 1 1 5 8 7 6 4 5 5 5 7 7 8 12 10 10 9 10
17 15 12 6 2 2 3 4 4 2 2 2 2 2 3 1 2 1 1 2 0 1 2 3 3 2 2 4 6 9 6 3 0 6 7 6 6 5 7 9 9 9 8 9
20 13 2 2 4 7 13 3 1 1 2 2 2 1 2 3 0 1 2 1 2 1 4 2 3 2 4 6 8 8 9 10 6 7 6 6 6 8 8 9 9 9 8 9
6 3 2 2 8 5 2 2 2 2 3 4 4 5 3 1 3 3 2 2 1 2 3 4 2 3 3 6 8 8 12 14 14 13 11 11 9 7 7 8 9 9 9 10
9 8 5 5 2 2 3 3 3 4 5 3 4 4 4 1 3 3 2 2 1 3 0 2 2 1 9 9 10 9 11 13 13 12 11 11 11 9 10 9 9 8 9 10
10 3 2 3 3 4 5 7 4 3 3 3 2 1 4 1 3 2 2 3 4 1 2 2 1 7 8 8 9 10 11 12 12 12 12 13 14 14 14 12 10 11 13 12
3 4 3 3 4 4 4 4 4 5 3 5 4 2 3 2 2 3 3 4 1 2 2 4 3 8 9 7 7 8 7 10 11 12 14 14 14 14 13 11 11 11 12 13
3 3 4 4 2 3 2 4 2 3 2 5 3 3 3 1 3 2 2 1 3 4 4 3 5 9 9 8 8 8 6 10 11 12 12 13 13 13 11 9 8 8 9 11
2 3 2 3 2 3 1 1 1 1 2 2 3 3 3 3 3 3 5 3 5 3 3 4 8 7 6 8 8 12 15 15 13 13 12 11 10 11 10 9 10 11 12 13
2 3 1 2 3 4 1 1 1 4 2 2 2 5 5 2 3 3 3 4 3 4 6 5 7 9 8 11 15 17 17 15 13 13 11 10 8 8 6 6 6 6 9 10

GFSNW_925_spd_126.txt.gz
Wind_Speed
23 23 22 22 21 20 15 5 3 10 16 2 1 3 4 5 4 3 3 4 3 3 2 0 2 3 3 3 2 5 2 3 6 12 14 3 1 4 3 3 4 4 3 4
20 19 19 20 20 17 9 3 3 5 4 3 1 2 3 3 3 3 3 3 3 1 2 1 3 3 2 4 5 1 3 2 5 9 4 4 6 6 7 8 4 2 4 3
17 16 16 15 15 15 5 3 4 2 1 1 3 5 4 4 4 3 5 4 4 3 1 3 3 3 2 6 2 4 1 3 6 5 8 5 13 11 12 4 3 6 4 5
16 14 13 12 12 12 5 2 2 4 4 3 4 3 3 5 4 3 4 3 4 3 3 3 3 2 4 3 4 3 2 4 3 9 13 5 13 18 18 10 12 4 7 8
15 13 11 10 9 10 1 3 4 2 2 5 6 2 2 5 4 4 2 5 4 5 4 5 3 2 1 3 3 2 1 3 2 5 6 5 9 14 16 15 14 5 7 8
14 13 10 8 9 5 2 2 3 3 3 3 4 3 5 5 7 5 4 4 3 4 5 4 7 8 6 6 1 2 1 2 2 4 5 7 3 9 8 8 16 7 9 4
13 13 9 8 6 3 4 3 3 4 1 3 4 5 4 7 3 6 2 3 1 2 5 5 2 4 6 6 6 7 2 1 2 4 4 2 2 10 7 6 12 12 10 5
12 11 9 8 6 5 9 5 3 2 3 3 6 7 6 6 5 4 3 1 1 4 4 3 3 3 3 3 3 1 8 2 3 2 3 2 3 7 6 5 8 11 11 13
11 11 10 9 10 11 14 13 6 3 5 0 3 5 3 4 3 2 0 2 4 4 3 3 1 1 2 1 5 5 4 2 3 3 3 1 2 13 12 5 2 13 11 11
13 12 12 11 10 9 7 9 7 5 4 0 1 3 4 4 4 3 1 4 5 3 2 2 1 1 1 1 2 3 3 2 3 4 2 3 9 14 10 1 4 9 9 8
13 11 11 11 10 9 7 10 10 3 3 1 2 2 4 3 2 3 2 3 3 3 3 1 0 1 1 1 1 1 2 3 2 3 2 2 13 3 4 4 3 7 8 11
12 12 12 11 11 10 9 6 8 10 4 3 1 2 3 5 5 4 2 3 2 2 3 1 1 1 2 1 1 3 1 1 2 1 1 4 5 6 5 6 5 6 9 10
14 14 13 11 11 8 7 11 5 7 3 3 3 3 4 5 10 3 4 1 2 2 2 3 1 1 3 1 1 0 1 3 1 2 3 4 5 5 7 6 7 8 7 7
16 15 14 12 12 13 15 8 8 7 4 3 0 3 3 4 6 9 4 5 4 5 2 2 2 1 1 1 1 2 0 2 1 1 3 5 5 5 4 4 5 5 8 10
18 16 14 13 13 13 13 13 13 10 4 3 1 2 4 1 6 9 10 5 3 2 2 2 1 1 1 0 1 1 1 2 1 2 1 1 3 5 5 3 5 6 7 7
18 16 14 14 16 15 6 3 5 6 4 3 2 3 3 5 10 10 8 5 2 2 2 2 2 2 2 2 1 3 4 3 1 3 3 5 4 4 6 4 7 9 10 10
19 17 15 13 11 7 7 3 3 7 5 3 2 2 3 8 6 3 2 2 1 2 1 0 1 2 2 1 2 3 6 6 5 5 6 4 6 3 7 13 12 11 11 11
20 18 15 13 15 14 8 9 8 6 6 3 3 1 1 1 2 2 3 2 0 2 1 1 1 1 1 1 2 7 7 7 6 6 6 5 8 8 8 10 8 8 7 9
22 19 17 11 4 4 4 11 10 6 4 3 2 3 3 2 2 2 2 2 1 2 1 2 2 1 4 3 6 7 4 3 9 7 7 6 8 6 5 7 7 6 7 9
23 13 4 3 2 15 11 4 2 3 2 1 1 1 2 3 2 1 2 2 0 0 3 2 2 2 3 3 6 6 5 4 7 9 6 6 4 6 6 7 9 9 8 9
5 3 2 6 14 3 3 2 2 1 1 2 2 3 2 1 3 3 1 2 2 1 2 2 2 3 4 7 7 5 8 9 9 9 8 7 7 6 6 7 9 9 9 9
6 12 10 4 3 2 4 1 1 1 2 2 3 3 3 1 2 3 2 2 1 2 2 1 3 2 7 8 8 7 8 9 10 10 10 11 10 9 10 9 9 8 8 8
7 5 3 3 1 4 4 4 2 2 2 4 3 2 3 1 3 3 2 3 3 2 0 3 3 4 7 8 8 8 9 11 11 11 11 12 13 13 14 13 10 9 9 10
3 3 3 3 2 3 4 2 2 2 2 2 2 3 3 1 3 2 4 3 1 2 2 5 3 7 9 8 7 8 6 9 11 13 15 16 16 15 13 12 10 10 10 10
3 3 2 3 2 3 2 2 0 2 3 2 2 2 2 2 3 1 3 2 3 5 4 3 3 10 9 9 7 8 7 11 12 15 16 15 15 14 13 11 9 8 9 8
3 2 2 1 2 3 3 2 3 1 3 2 1 2 3 1 4 3 5 3 5 4 3 2 6 10 8 8 8 11 16 18 18 16 16 15 14 13 11 10 10 9 10 9
2 1 2 1 1 3 2 2 2 2 2 2 2 3 5 3 2 3 4 5 4 3 2 2 6 11 10 11 14 18 20 20 19 17 15 14 13 13 12 12 11 10 9 8

GFSNW_925_spd_129.txt.gz
Wind_Speed
29 28 30 37 36 40 25 5 4 12 18 3 1 3 4 4 5 2 4 5 5 4 4 3 3 4 3 2 1 4 1 2 5 7 11 2 5 8 4 4 3 5 7 3
24 26 27 29 36 30 11 3 4 5 3 4 3 2 3 3 5 4 4 4 3 3 4 4 3 3 3 4 1 3 2 2 5 3 5 4 6 14 10 8 4 4 4 3
20 21 22 25 27 16 4 4 4 1 1 1 4 4 4 5 3 4 6 5 5 4 3 1 4 2 1 1 2 5 3 3 5 4 5 3 4 16 14 9 3 4 7 5
17 17 18 17 17 14 2 2 3 4 4 3 3 3 5 10 5 3 4 3 4 5 4 2 3 2 2 1 1 2 1 3 4 9 13 2 4 12 15 11 11 6 3 6
15 15 15 14 12 11 2 3 4 2 3 7 5 3 4 7 4 4 3 7 6 4 4 3 4 4 3 4 1 2 1 2 2 4 5 9 3 13 12 10 11 6 5 6
14 13 12 11 11 6 2 3 1 4 1 4 4 3 5 8 7 6 5 9 5 5 4 4 4 5 4 3 2 1 2 0 3 2 5 3 4 8 7 8 14 8 8 6
13 11 10 9 9 3 3 2 2 4 2 3 4 6 8 8 4 6 3 5 4 3 1 2 4 1 6 5 9 7 2 2 1 4 6 2 4 6 3 7 10 10 9 12
13 11 9 9 6 4 4 3 2 3 3 4 6 11 8 7 5 4 4 2 2 2 2 3 4 2 2 3 2 5 7 1 1 2 3 4 4 6 6 4 7 13 12 12
13 11 10 9 10 10 11 11 7 4 6 1 4 6 5 4 3 2 2 2 1 3 2 2 3 3 3 4 3 5 5 2 0 2 2 1 2 13 8 5 2 10 12 11
13 12 11 10 9 8 6 9 7 6 4 1 2 3 4 3 4 3 1 1 2 2 2 2 2 2 1 3 2 0 1 2 2 1 2 4 7 13 8 3 4 8 10 10
13 13 10 10 10 7 6 10 11 3 3 2 3 2 4 3 2 3 3 2 2 2 3 2 2 1 2 2 3 2 1 0 0 1 1 2 10 3 3 3 4 8 8 11
14 14 12 11 10 9 9 6 13 14 5 3 5 8 7 4 4 5 1 2 2 2 3 1 2 2 1 3 4 1 2 1 1 0 1 6 6 7 4 4 3 6 7 7
14 14 13 11 10 7 9 11 7 9 3 4 4 3 7 6 5 6 4 0 3 2 1 3 2 2 2 2 2 3 3 1 2 3 4 5 6 6 5 4 3 5 7 7
17 15 14 12 11 12 11 9 9 9 3 3 1 3 5 5 7 9 9 8 6 5 2 2 2 2 1 1 2 1 1 3 3 3 6 7 5 5 4 3 4 4 8 8
18 17 16 15 15 18 20 22 17 10 3 3 3 2 6 4 10 14 13 12 4 2 2 2 1 1 2 1 1 1 2 3 3 2 4 2 5 5 4 1 5 6 5 6
18 18 17 16 16 13 5 4 8 11 4 3 3 1 3 5 11 12 9 7 3 2 2 1 0 1 1 1 2 3 3 2 1 3 4 8 8 6 1 7 8 8 8 7
19 19 17 14 9 7 8 3 3 5 4 3 3 2 2 8 4 3 2 3 2 2 2 1 1 0 1 2 2 8 8 7 7 8 9 6 4 5 11 11 10 10 9 9
20 19 18 18 18 15 10 9 7 7 8 3 3 2 2 2 2 2 3 1 1 2 1 1 1 1 0 2 4 8 9 9 7 5 6 7 12 10 9 8 7 8 7 8
23 22 20 12 6 4 5 9 8 13 6 3 2 4 3 2 2 2 2 1 1 2 1 0 2 1 4 2 10 10 11 6 10 9 10 9 10 8 7 8 7 7 7 8
23 7 5 3 3 18 9 3 3 3 3 2 2 1 3 3 1 2 1 1 1 0 2 2 2 2 2 2 6 8 6 10 12 11 7 8 7 7 7 7 8 8 8 8
3 3 2 6 11 2 3 2 2 1 1 1 1 1 3 2 3 3 1 2 2 1 1 2 2 3 4 8 8 7 7 7 7 8 9 7 11 9 8 8 9 9 8 8
7 14 8 4 3 3 4 1 1 1 2 2 3 2 2 2 2 3 2 2 2 1 3 2 2 2 7 10 9 8 9 11 11 11 13 13 12 11 12 11 10 9 9 10
9 5 4 3 2 5 3 3 1 1 3 4 3 3 2 2 2 3 2 3 2 3 2 3 3 5 9 10 9 9 10 12 12 12 12 12 12 13 14 14 12 13 13 12
3 3 4 2 0 0 2 1 2 1 2 4 2 3 1 1 2 2 4 1 0 0 2 4 2 9 11 10 9 10 10 10 12 12 14 16 18 17 15 14 11 12 13 12
3 3 2 1 1 1 1 1 0 1 2 3 2 2 1 1 3 1 3 2 2 4 4 3 2 10 12 11 10 9 9 11 12 15 16 18 19 18 15 12 11 12 12 11
3 3 3 0 2 2 2 1 1 0 2 2 1 2 3 1 3 3 4 4 5 3 3 1 7 10 10 10 9 12 14 15 17 18 19 18 18 17 15 12 11 11 10 10
3 0 2 3 2 1 1 1 2 1 1 1 1 3 4 3 3 3 4 5 3 2 2 4 7 11 11 12 13 16 18 18 18 19 18 18 16 15 14 12 12 12 10 9